Location: Emblem
(62.4273°N, 6.4710°E)
Time: 09:58:02
(UTC+01:00)

NOAA 19 - Visible Passes

Search period start: 04 March 2024 00:00
Search period end: 14 March 2024 00:00
Orbit: 840 x 859 km, 99.1° (Epoch: 03 March)

Date Brightness Start Highest point End Pass type
(mag) Time Alt. Az. Time Alt. Az. Time Alt. Az.
04 Mar 5.2 20:00:50 10° SE 20:06:16 70° ENE 20:11:49 10° NNW visible
04 Mar 6.6 21:42:48 12° SSW 21:47:21 35° W 21:52:27 10° NNW visible
05 Mar 5.3 19:48:36 10° SE 19:54:03 61° ENE 19:59:33 10° NNW visible
05 Mar 6.3 21:30:18 13° SSW 21:35:00 41° W 21:40:15 10° NNW visible
05 Mar 7.9 23:15:39 10° W 23:17:15 11° WNW 23:18:50 10° WNW visible
06 Mar 5.4 19:36:29 10° SE 19:41:52 53° ENE 19:47:16 10° NNW visible
06 Mar 6.1 21:17:47 12° S 21:22:40 47° W 21:28:03 10° NNW visible
06 Mar 7.8 23:02:07 10° WSW 23:04:44 13° WNW 23:07:22 10° NW visible
07 Mar 5.6 19:24:24 10° SE 19:29:42 47° NE 19:34:59 10° NNW visible
07 Mar 5.8 21:05:16 12° S 21:10:21 56° WSW 21:15:50 10° NNW visible
07 Mar 7.7 22:48:57 10° WSW 22:52:15 16° W 22:55:33 10° NW visible
08 Mar 5.8 19:12:22 10° ESE 19:17:32 41° NE 19:22:42 10° NNW visible
08 Mar 5.6 20:52:45 11° S 20:58:03 65° WSW 21:03:36 10° NNW visible
08 Mar 7.5 22:35:59 10° SW 22:39:47 19° W 22:43:36 10° NW visible
09 Mar 5.9 19:00:21 10° ESE 19:05:23 36° NE 19:10:25 10° NNW visible
09 Mar 5.4 20:40:14 10° SSE 20:45:46 75° WSW 20:51:21 10° NNW visible
09 Mar 7.3 22:23:08 10° SW 22:27:20 22° W 22:31:33 10° NW visible
10 Mar 5.2 20:27:55 10° SSE 20:33:29 86° WSW 20:39:05 10° NNW visible
10 Mar 7.1 22:10:22 10° SW 22:14:55 25° W 22:19:28 10° NNW visible
11 Mar 5.2 20:15:41 10° SSE 20:21:15 82° ENE 20:26:49 10° NNW visible
11 Mar 6.9 21:57:42 10° SSW 22:02:30 29° W 22:07:19 10° NNW visible
12 Mar 5.2 20:03:29 10° SSE 20:09:00 72° ENE 20:14:33 10° NNW visible
12 Mar 6.7 21:45:06 10° SSW 21:50:07 34° W 21:55:09 10° NNW visible
13 Mar 5.3 19:51:19 10° SE 19:56:47 62° ENE 20:02:16 10° NNW visible
13 Mar 6.4 21:32:33 10° SSW 21:37:45 40° W 21:42:58 10° NNW visible
13 Mar 7.9 23:18:42 10° W 23:20:01 11° WNW 23:21:20 10° WNW visible
